| time (UTC) | temp F | wind direction | speed MPH | gust MPH | rain 1hr in | rain 24hr in | rain mn in | humidity % | barometer mb |
| 20260508200704 | 84 | 175 | 2.0 | 5.0 | 0.00 | 0.00 | 0.00 | 49 | 1009.6 |
| 20260508200203 | 84 | 220 | 4.0 | 9.0 | 0.00 | 0.00 | 0.00 | 52 | 1009.7 |
| 20260508193703 | 84 | 192 | 1.0 | 5.0 | 0.00 | 0.00 | 0.00 | 49 | 1010.3 |
| 20260508193204 | 83 | 307 | 2.0 | 10.0 | 0.00 | 0.00 | 0.00 | 50 | 1010.3 |
| 20260508190704 | 82 | 224 | 2.0 | 3.0 | 0.00 | 0.00 | 0.00 | 51 | 1010.9 |
| 20260508190204 | 81 | 197 | 2.0 | 10.0 | 0.00 | 0.00 | 0.00 | 52 | 1010.8 |
| 20260508183704 | 80 | 213 | 6.0 | 13.0 | 0.00 | 0.00 | 0.00 | 52 | 1011.1 |
| 20260508180202 | 78 | 180 | 6.0 | 12.0 | 0.00 | 0.00 | 0.00 | 52 | 1011.3 |
| 20260508173703 | 79 | 233 | 3.0 | 12.0 | 0.00 | 0.00 | 0.00 | 50 | 1011.7 |
| 20260508173203 | 79 | 180 | 3.0 | 17.0 | 0.00 | 0.00 | 0.00 | 50 | 1011.8 |
| 20260508170203 | 77 | 212 | 4.0 | 15.0 | 0.00 | 0.00 | 0.00 | 49 | 1012.4 |
| 20260508163203 | 76 | 185 | 5.0 | 15.0 | 0.00 | 0.00 | 0.00 | 48 | 1013.0 |
| 20260508160203 | 74 | 187 | 4.0 | 14.0 | 0.00 | 0.00 | 0.00 | 51 | 1013.5 |
| 20260508153704 | 74 | 211 | 4.0 | 12.0 | 0.00 | 0.00 | 0.00 | 54 | 1013.7 |
| 20260508153203 | 73 | 262 | 3.0 | 14.0 | 0.00 | 0.00 | 0.00 | 56 | 1013.7 |
| 20260508150703 | 71 | 191 | 5.0 | 12.0 | 0.00 | 0.00 | 0.00 | 54 | 1014.0 |
| 20260508150203 | 71 | 165 | 6.0 | 14.0 | 0.00 | 0.00 | 0.00 | 56 | 1014.0 |
| 20260508143703 | 69 | 172 | 3.0 | 8.0 | 0.00 | 0.00 | 0.00 | 61 | 1014.4 |
| 20260508143204 | 68 | 230 | 3.0 | 12.0 | 0.00 | 0.00 | 0.00 | 62 | 1014.4 |
| 20260508140702 | 66 | 214 | 3.0 | 9.0 | 0.00 | 0.00 | 0.00 | 67 | 1014.5 |
| 20260508140203 | 65 | 181 | 2.0 | 10.0 | 0.00 | 0.00 | 0.00 | 68 | 1014.6 |
| 20260508133702 | 62 | 172 | 2.0 | 9.0 | 0.00 | 0.00 | 0.00 | 73 | 1014.9 |
| 20260508133203 | 61 | 166 | 2.0 | 7.0 | 0.00 | 0.00 | 0.00 | 74 | 1014.8 |
| 20260508130204 | 57 | 157 | 1.0 | 5.0 | 0.00 | 0.00 | 0.00 | 79 | 1014.9 |
| 20260508123703 | 54 | 165 | 2.0 | 3.0 | 0.00 | 0.00 | 0.00 | 81 | 1014.9 |
| 20260508123202 | 54 | 165 | 1.0 | 3.0 | 0.00 | 0.00 | 0.00 | 81 | 1014.8 |
| 20260508120703 | 53 | 166 | 1.0 | 2.0 | 0.00 | 0.00 | 0.00 | 81 | 1014.7 |
| 20260508120202 | 53 | 166 | 1.0 | 3.0 | 0.00 | 0.00 | 0.00 | 81 | 1014.6 |
| 20260508113703 | 53 | 170 | 2.0 | 3.0 | 0.00 | 0.00 | 0.00 | 80 | 1014.6 |
| 20260508113203 | 53 | 170 | 1.0 | 3.0 | 0.00 | 0.00 | 0.00 | 80 | 1014.6 |
| 20260508110702 | 53 | 172 | 2.0 | 3.0 | 0.00 | 0.00 | 0.00 | 79 | 1014.4 |
| 20260508110203 | 53 | 172 | 1.0 | 3.0 | 0.00 | 0.00 | 0.00 | 79 | 1014.4 |
| 20260508103702 | 53 | 180 | 0.0 | 1.0 | 0.00 | 0.00 | 0.00 | 78 | 1014.5 |
| 20260508103203 | 53 | 177 | 0.0 | 3.0 | 0.00 | 0.00 | 0.00 | 78 | 1014.3 |
| 20260508100702 | 54 | 180 | 0.0 | 2.0 | 0.00 | 0.00 | 0.00 | 76 | 1014.2 |
| 20260508100203 | 54 | 178 | 1.0 | 3.0 | 0.00 | 0.00 | 0.00 | 76 | 1014.1 |
| 20260508093703 | 55 | 178 | 1.0 | 3.0 | 0.00 | 0.00 | 0.00 | 75 | 1014.0 |
| 20260508093203 | 55 | 176 | 1.0 | 3.0 | 0.00 | 0.00 | 0.00 | 75 | 1014.0 |
| 20260508090702 | 55 | 170 | 2.0 | 3.0 | 0.00 | 0.00 | 0.00 | 74 | 1014.0 |
| 20260508083702 | 55 | 173 | 1.0 | 2.0 | 0.00 | 0.00 | 0.00 | 72 | 1014.0 |
| 20260508080703 | 55 | 174 | 0.0 | 0.0 | 0.00 | 0.00 | 0.00 | 70 | 1014.2 |
| 20260508073202 | 56 | 154 | 2.0 | 5.0 | 0.00 | 0.00 | 0.00 | 68 | 1014.3 |
| 20260508070703 | 56 | 176 | 1.0 | 3.0 | 0.00 | 0.00 | 0.00 | 67 | 1014.9 |
| 20260508063203 | 57 | 172 | 1.0 | 3.0 | 0.00 | 0.00 | 0.00 | 66 | 1015.2 |
| 20260508060703 | 57 | 170 | 1.0 | 2.0 | 0.00 | 0.00 | 0.00 | 64 | 1015.4 |
| 20260508060203 | 57 | 170 | 1.0 | 3.0 | 0.00 | 0.00 | 0.00 | 64 | 1015.4 |
| 20260508053703 | 58 | 169 | 0.0 | 1.0 | 0.00 | 0.00 | 0.00 | 62 | 1015.2 |
| 20260508053202 | 58 | 172 | 1.0 | 3.0 | 0.00 | 0.00 | 0.00 | 62 | 1015.2 |
| 20260508050704 | 59 | 170 | 2.0 | 3.0 | 0.00 | 0.00 | 0.00 | 61 | 1015.2 |
| 20260508050202 | 59 | 170 | 1.0 | 3.0 | 0.00 | 0.00 | 0.00 | 60 | 1015.2 |
| 20260508043703 | 60 | 180 | 1.0 | 3.0 | 0.00 | 0.00 | 0.00 | 59 | 1015.5 |
| 20260508040702 | 61 | 174 | 1.0 | 3.0 | 0.00 | 0.00 | 0.00 | 56 | 1015.6 |
| 20260508040204 | 61 | 175 | 1.0 | 8.0 | 0.00 | 0.00 | 0.00 | 56 | 1015.6 |
| 20260508033703 | 62 | 168 | 1.0 | 3.0 | 0.00 | 0.00 | 0.00 | 55 | 1015.6 |
| 20260508033203 | 62 | 168 | 2.0 | 5.0 | 0.00 | 0.00 | 0.00 | 55 | 1015.6 |
| 20260508030703 | 63 | 159 | 2.0 | 3.0 | 0.00 | 0.00 | 0.00 | 52 | 1015.5 |
| 20260508030203 | 64 | 163 | 1.0 | 5.0 | 0.00 | 0.00 | 0.00 | 52 | 1015.4 |
| 20260508023703 | 65 | 168 | 2.0 | 3.0 | 0.00 | 0.00 | 0.00 | 50 | 1015.3 |
| 20260508020703 | 67 | 161 | 2.0 | 6.0 | 0.00 | 0.00 | 0.00 | 46 | 1015.3 |
| 20260508020203 | 67 | 167 | 3.0 | 7.0 | 0.00 | 0.00 | 0.00 | 45 | 1015.3 |
| 20260508013703 | 68 | 152 | 1.0 | 7.0 | 0.00 | 0.00 | 0.00 | 43 | 1014.9 |
| 20260508010702 | 71 | 161 | 3.0 | 6.0 | 0.00 | 0.00 | 0.00 | 38 | 1014.6 |
| 20260508003702 | 73 | 169 | 2.0 | 6.0 | 0.00 | 0.00 | 0.00 | 35 | 1014.3 |
| 20260508003203 | 73 | 164 | 4.0 | 8.0 | 0.00 | 0.00 | 0.00 | 34 | 1014.3 |
| 20260508000703 | 74 | 155 | 2.0 | 9.0 | 0.00 | 0.00 | 0.00 | 33 | 1014.4 |
| 20260508000204 | 74 | 170 | 1.0 | 13.0 | 0.00 | 0.00 | 0.00 | 33 | 1014.4 |
| 20260507233703 | 75 | 155 | 5.0 | 9.0 | 0.00 | 0.00 | 0.00 | 31 | 1014.7 |
| 20260507233205 | 76 | 159 | 3.0 | 10.0 | 0.00 | 0.00 | 0.00 | 31 | 1014.7 |
| 20260507230703 | 78 | 181 | 3.0 | 9.0 | 0.00 | 0.00 | 0.00 | 28 | 1015.1 |
| 20260507223703 | 76 | 219 | 1.0 | 5.0 | 0.00 | 0.00 | 0.00 | 29 | 1015.3 |
| 20260507223202 | 76 | 274 | 3.0 | 5.0 | 0.00 | 0.00 | 0.00 | 29 | 1015.4 |
| 20260507220704 | 75 | 182 | 2.0 | 3.0 | 0.00 | 0.00 | 0.00 | 32 | 1015.6 |
| 20260507220203 | 76 | 170 | 4.0 | 8.0 | 0.00 | 0.00 | 0.00 | 30 | 1015.6 |
| 20260507213703 | 74 | 181 | 4.0 | 12.0 | 0.00 | 0.00 | 0.00 | 32 | 1015.9 |
| 20260507213202 | 75 | 155 | 2.0 | 9.0 | 0.00 | 0.00 | 0.00 | 34 | 1015.9 |
| 20260507203703 | 74 | 331 | 2.0 | 8.0 | 0.00 | 0.00 | 0.00 | 35 | 1017.0 |
| 20260507203203 | 75 | 256 | 2.0 | 12.0 | 0.00 | 0.00 | 0.00 | 34 | 1017.1 |